Regional Weather Roundup
Issued by NWS

Home | Current Version | Previous Version | Text Only | Print | Product List | Glossary Off
Versions: 1 2 3 4 5 6 7 8 9 10 11 12 13 14 15 16 17 18 19 20 21 22 23 24 25 26 27 28 29 30 31 32 33 34 35 36 37 38 39 40 41 42 43 44 45 46 47 48 49 50

000
ASUS45 KBOI 281110
RWRID

IDAHO REGIONAL WEATHER ROUNDUP
NATIONAL WEATHER SERVICE BOISE ID
500 AM MDT TUE MAR 28 2017

NOTE: "FAIR" INDICATES FEW OR NO CLOUDS BELOW 12000 FEET
WITH NO SIGNIFICANT WEATHER AND/OR OBSTRUCTIONS TO VISIBILITY

IDZ012-014-281200-
SOUTHWEST IDAHO


CITY           SKY/WX    TMP DP  RH WIND       PRES   REMARKS
BOISE          PTCLDY    36  31  82 W5        30.23R WCI  32
CALDWELL       PTCLDY    36  31  82 W6        30.25S WCI  31
MOUNTAIN HOME  PTCLDY    36  36 100 NW14      30.20S WCI  27
$$

IDZ016-017-281200-
SOUTHCENTRAL IDAHO


CITY           SKY/WX    TMP DP  RH WIND       PRES   REMARKS
BURLEY         CLOUDY    36  28  73 W12       30.15R WCI  28
JEROME         PTCLDY    32  30  92 SW12      30.16R WCI  23
TWIN FALLS     PTCLDY    33  27  78 SW16      30.17R WCI  23
$$

IDZ019>023-281200-
SOUTHEAST IDAHO


CITY           SKY/WX    TMP DP  RH WIND       PRES   REMARKS
IDAHO FALLS    CLEAR     32  32 100 SW7       30.11R WCI  26
POCATELLO      MOCLDY    34  31  88 SW13      30.14R WCI  25
REXBURG        PTCLDY    32  32 100 S6        30.09R FOG     WCI  26
$$

IDZ006-010-011-018-031-032-281200-
CENTRAL IDAHO MOUNTAINS


CITY           SKY/WX    TMP DP  RH WIND       PRES   REMARKS
MCCALL         MOCLDY    24  21  88 CALM      30.18S
HAILEY         CLEAR     32  23  69 W8        30.14R WCI  25
STANLEY          N/A     17  14  88 CALM      30.18R
SALMON         CLOUDY    30  25  80 CALM      30.19R
CHALLIS        MOCLDY    30  22  72 SE3       30.17S
$$

IDZ002-004-006-007-026-281200-
NORTHERN IDAHO


CITY           SKY/WX    TMP DP  RH WIND       PRES   REMARKS
LEWISTON       CLEAR     38  31  76 CALM      30.26R
LOWELL           N/A     39  37  92 CALM      30.31R
COEUR D`ALENE  PTCLDY    38  34  85 SE6       30.20S WCI  33
MULLAN PASS    CLOUDY    27  27 100 VRB5      30.13R FOG     WCI  22
$$



USA.gov is the U.S. government's official web portal to all federal, state and local government web resources and services.